Regional Weather Roundup
Issued by NWS

Home | Current Version | Previous Version | Graphics & Text | Print | Product List | Glossary On
Versions: 1 2 3 4 5 6 7 8 9 10 11 12 13 14 15 16 17 18 19 20 21 22 23 24 25 26 27 28 29 30 31 32 33 34 35 36 37 38 39 40 41 42 43 44 45 46 47 48 49 50
000
ASUS43 KFSD 241502
RWRSD

WEATHER ROUNDUP FOR SOUTH DAKOTA
NATIONAL WEATHER SERVICE SIOUX FALLS SD
1000 AM CDT WED AUG 24 2016

NOTE: "FAIR" INDICATES FEW OR NO CLOUDS BELOW 12,000 FEET WITH NO
SIGNIFICANT WEATHER AND/OR OBSTRUCTIONS TO VISIBILITY.


SDZ001>005-009-010-012>017-241600-
NORTHWEST AND NORTH CENTRAL SOUTH DAKOTA

CITY           SKY/WX    TMP DP  RH WIND       PRES   REMARKS
BUFFALO          N/A     62  48  60 W24       30.09R
FAITH            N/A     63  48  58 W17G25    30.14R
MOBRIDGE       SUNNY     66  48  52 W16       30.05R
$$

SDZ012>016-024>037-041>051-057-063-072>074-241600-
SOUTHWEST AND SOUTH CENTRAL SOUTH DAKOTA

CITY           SKY/WX    TMP DP  RH WIND       PRES   REMARKS
RAPID CTY ARPT PTSUNNY   63  46  54 N17G24    30.19S
PIERRE         PTSUNNY   66  49  54 NW20      30.08S
CUSTER         MOSUNNY   59  32  36 W5        30.26R
ELLSWORTH AFB  MOSUNNY   61  46  56 NW21      30.17F
PHILIP         CLOUDY    67  48  50 NW14      30.14F
PINE RIDGE     CLOUDY    56  48  74 CALM      30.21R
WINNER         FAIR      64  48  56 NW12      30.10R
$$

SDZ004>011-016>023-039-040-241600-
NORTHEAST SOUTH DAKOTA

CITY           SKY/WX    TMP DP  RH WIND       PRES   REMARKS
ABERDEEN       SUNNY     67  51  56 NW16G25   29.99S
WATERTOWN      SUNNY     70  53  54 NW12      29.98S
BROOKINGS      SUNNY     67  55  65 N8        29.99R
$$

SDZ017-020-022-023-036>040-048>070-241600-
SOUTHEAST SOUTH DAKOTA

CITY           SKY/WX    TMP DP  RH WIND       PRES   REMARKS
SIOUX FALLS    CLOUDY    69  58  67 NW7       29.99R
HURON          CLOUDY    66  51  58 N14       30.01R
CHAMBERLAIN    CLOUDY    69  50  50 NW16G23   30.07R
MITCHELL       MOSUNNY   66  52  60 NW6       30.03R
YANKTON        CLOUDY    64  48  55 NW12      30.01R
$$

ABBREVIATIONS USED IN REMARKS
   TC - TEMPERATURE IN CELSIUS
  WCI - WIND CHILL INDEX
   HX - HEAT INDEX
  VSB - VISIBILITY





USA.gov is the U.S. government's official web portal to all federal, state and local government web resources and services.